Weather History for Farmington, MO

Change the Weather History Date:

Wednesday, April 10, 2013

  Actual Average Record
Temperature  
Mean Temperature 70 °F -  
Max Temperature 80 °F 64 °F 84 °F (2014)
Min Temperature 60 °F 43 °F 33 °F (1997)
Cooling Degree Days 5    
Growing Degree Days 20 (Base 50)    
Moisture  
Dew Point 63 °F    
Average Humidity 76    
Maximum Humidity 94    
Minimum Humidity 57    
Precipitation  
Precipitation 1.22 in - - ()
Sea Level Pressure  
Sea Level Pressure 29.79 in    
Wind  
Wind Speed 13 mph (South)    
Max Wind Speed 22 mph    
Max Gust Speed 29 mph    
Visibility 10 miles    
Events Thunderstorm    
Averages and records for this station are not official NWS values.
T = Trace of Precipitation, MM = Missing Value Source: NWS Daily Summary

Daily Weather History Graph

Daily Weather History Graph

Search for Another Location

Airport:

Trip Planner

Search our weather history database for the weather conditions in past years. The results will help you decide how hot, cold, wet, or windy it might be!

Date:

Astronomy

Apr. 10, 2013 Rise Set
Actual Time 6:33 AM CDT 7:33 PM CDT
Civil Twilight 6:06 AM CDT 7:59 PM CDT
Nautical Twilight 5:34 AM CDT 8:31 PM CDT
Astronomical Twilight 5:01 AM CDT 9:05 PM CDT
Moon 6:30 AM CDT (4/10) 8:07 PM CDT (4/10)
Length of Visible Light 13h 53m
Length of Day
12h 59m
New Moon, 0% of the Moon is Illuminated
Apr 10
New Moon
Apr 18
First Quarter
Apr 25
Full
May 2
Last Quarter
May 9
New

Hourly Weather History & Observations

Time (CDT) Temp. Heat Index Dew Point Humidity Pressure Visibility Wind Dir Wind Speed Gust Speed Precip Events Conditions
12:15 AM 71.6 °F - 60.8 °F 69% 29.87 in 10.0 mi South 9.2 mph - N/A   Clear
12:35 AM 69.8 °F - 60.8 °F 73% 29.86 in 10.0 mi SSE 9.2 mph - N/A   Partly Cloudy
12:55 AM 69.8 °F - 62.6 °F 78% 29.85 in 10.0 mi SSE 11.5 mph 17.3 mph N/A   Scattered Clouds
1:15 AM 69.8 °F - 62.6 °F 78% 29.84 in 10.0 mi South 8.1 mph - N/A   Mostly Cloudy
1:35 AM 69.8 °F - 62.6 °F 78% 29.84 in 10.0 mi SSE 8.1 mph - N/A   Mostly Cloudy
1:55 AM 69.8 °F - 62.6 °F 78% 29.83 in 10.0 mi South 12.7 mph - N/A   Overcast
2:15 AM 71.6 °F - 62.6 °F 73% 29.83 in 10.0 mi South 12.7 mph 23.0 mph N/A   Mostly Cloudy
2:35 AM 71.6 °F - 62.6 °F 73% 29.83 in 10.0 mi South 16.1 mph 21.9 mph N/A   Mostly Cloudy
2:55 AM 71.6 °F - 62.6 °F 73% 29.83 in 10.0 mi South 9.2 mph 20.7 mph N/A   Overcast
3:15 AM 71.6 °F - 62.6 °F 73% 29.83 in 10.0 mi South 17.3 mph 25.3 mph N/A   Overcast
3:35 AM 71.6 °F - 62.6 °F 73% 29.83 in 10.0 mi South 18.4 mph 28.8 mph N/A   Overcast
3:55 AM 69.8 °F - 62.6 °F 78% 29.83 in 10.0 mi SSW 18.4 mph 24.2 mph N/A   Scattered Clouds
4:15 AM 69.8 °F - 62.6 °F 78% 29.84 in 10.0 mi South 15.0 mph 21.9 mph N/A   Partly Cloudy
4:35 AM 71.6 °F - 62.6 °F 73% 29.84 in 10.0 mi South 12.7 mph 20.7 mph N/A   Mostly Cloudy
4:55 AM 71.6 °F - 62.6 °F 73% 29.83 in 10.0 mi South 13.8 mph 23.0 mph N/A   Overcast
5:15 AM 69.8 °F - 62.6 °F 78% 29.84 in 10.0 mi SSW 16.1 mph 20.7 mph N/A   Overcast
5:35 AM 69.8 °F - 62.6 °F 78% 29.83 in 10.0 mi South 13.8 mph - N/A   Mostly Cloudy
5:55 AM 69.8 °F - 62.6 °F 78% 29.83 in 10.0 mi South 13.8 mph - N/A   Scattered Clouds
6:15 AM 69.8 °F - 62.6 °F 78% 29.84 in 10.0 mi South 15.0 mph - N/A   Partly Cloudy
6:35 AM 69.8 °F - 62.6 °F 78% 29.84 in 10.0 mi South 12.7 mph 19.6 mph N/A   Mostly Cloudy
6:55 AM 69.8 °F - 62.6 °F 78% 29.85 in 10.0 mi South 9.2 mph - N/A   Mostly Cloudy
7:15 AM 69.8 °F - 62.6 °F 78% 29.84 in 10.0 mi South 12.7 mph 19.6 mph N/A   Partly Cloudy
7:35 AM 69.8 °F - 64.4 °F 83% 29.84 in 10.0 mi South 12.7 mph 19.6 mph N/A   Partly Cloudy
7:55 AM 71.6 °F - 64.4 °F 78% 29.85 in 10.0 mi South 13.8 mph 23.0 mph N/A   Partly Cloudy
8:15 AM 71.6 °F - 64.4 °F 78% 29.85 in 10.0 mi South 15.0 mph 21.9 mph N/A   Scattered Clouds
8:35 AM 71.6 °F - 64.4 °F 78% 29.86 in 10.0 mi South 16.1 mph 25.3 mph N/A   Mostly Cloudy
8:55 AM 71.6 °F - 64.4 °F 78% 29.86 in 3.0 mi South 21.9 mph 25.3 mph N/A   Mostly Cloudy
9:15 AM 73.4 °F - 64.4 °F 73% 29.86 in 10.0 mi South 15.0 mph 21.9 mph N/A   Mostly Cloudy
9:35 AM 73.4 °F - 64.4 °F 73% 29.86 in 10.0 mi South 15.0 mph 20.7 mph N/A   Scattered Clouds
9:55 AM 73.4 °F - 64.4 °F 73% 29.87 in 10.0 mi South 16.1 mph 23.0 mph N/A   Mostly Cloudy
10:15 AM 73.4 °F - 64.4 °F 73% 29.88 in 10.0 mi South 16.1 mph 23.0 mph N/A   Overcast
10:35 AM 73.4 °F - 66.2 °F 78% 29.87 in 10.0 mi South 13.8 mph - N/A   Overcast
10:55 AM 75.2 °F - 64.4 °F 69% 29.87 in 10.0 mi South 19.6 mph 23.0 mph N/A   Mostly Cloudy
11:15 AM 75.2 °F - 64.4 °F 69% 29.88 in 10.0 mi South 18.4 mph 21.9 mph N/A   Overcast
11:35 AM 75.2 °F - 64.4 °F 69% 29.87 in 10.0 mi South 13.8 mph 23.0 mph N/A   Overcast
12:15 PM 77.0 °F - 64.4 °F 65% 29.87 in 10.0 mi South 16.1 mph 27.6 mph N/A   Mostly Cloudy
12:35 PM 75.2 °F - 64.4 °F 69% 29.85 in 10.0 mi South 18.4 mph 25.3 mph N/A   Mostly Cloudy
12:55 PM 77.0 °F - 64.4 °F 65% 29.84 in 10.0 mi South 15.0 mph 21.9 mph N/A   Mostly Cloudy
1:15 PM 78.8 °F - 66.2 °F 65% 29.85 in 10.0 mi South 15.0 mph 24.2 mph N/A Thunderstorm Mostly Cloudy
1:35 PM 75.2 °F - 64.4 °F 69% 29.84 in 10.0 mi South 16.1 mph 23.0 mph N/A   Mostly Cloudy
1:55 PM 77.0 °F - 64.4 °F 65% 29.83 in 10.0 mi SSW 15.0 mph 19.6 mph N/A   Overcast
2:15 PM 75.2 °F - 64.4 °F 69% 29.82 in 10.0 mi South 13.8 mph 20.7 mph N/A   Overcast
2:35 PM 73.4 °F - 64.4 °F 73% 29.80 in 4.0 mi SE 12.7 mph - 0.01 in Thunderstorm Thunderstorm
2:55 PM 69.8 °F - 64.4 °F 83% 29.82 in 5.0 mi SSW 4.6 mph 23.0 mph 0.05 in Thunderstorm Thunderstorm
3:15 PM 75.2 °F - 66.2 °F 73% 29.79 in 10.0 mi South 15.0 mph 19.6 mph N/A   Partly Cloudy
3:35 PM 78.8 °F - 66.2 °F 65% 29.77 in 10.0 mi South 16.1 mph 21.9 mph N/A   Clear
3:55 PM 78.8 °F - 66.2 °F 65% 29.75 in 10.0 mi South 15.0 mph - N/A   Partly Cloudy
4:15 PM 78.8 °F - 66.2 °F 65% 29.73 in 10.0 mi South 16.1 mph 21.9 mph N/A   Partly Cloudy
4:35 PM 80.6 °F 82.3 °F 64.4 °F 58% 29.72 in 10.0 mi SSE 21.9 mph - N/A   Partly Cloudy
4:55 PM 78.8 °F - 64.4 °F 61% 29.70 in 10.0 mi South 21.9 mph 28.8 mph N/A Thunderstorm Partly Cloudy
5:15 PM 78.8 °F - 62.6 °F 57% 29.70 in 10.0 mi South 16.1 mph 26.5 mph N/A Thunderstorm Thunderstorm
5:35 PM 73.4 °F - 64.4 °F 73% 29.69 in 10.0 mi SSE 8.1 mph - 0.04 in Thunderstorm Mostly Cloudy
5:55 PM 71.6 °F - 66.2 °F 83% 29.68 in 10.0 mi South 9.2 mph - 0.05 in Thunderstorm Scattered Clouds
6:15 PM 71.6 °F - 64.4 °F 78% 29.68 in 10.0 mi SSE 18.4 mph 24.2 mph 0.03 in Thunderstorm Thunderstorm
6:35 PM 69.8 °F - 62.6 °F 78% 29.68 in 10.0 mi SSE 12.7 mph 20.7 mph 0.06 in Thunderstorm Mostly Cloudy
6:55 PM 68.0 °F - 64.4 °F 88% 29.68 in 10.0 mi South 5.8 mph - 0.07 in   Overcast
7:15 PM 68.0 °F - 64.4 °F 88% 29.68 in 10.0 mi South 5.8 mph - N/A   Mostly Cloudy
7:35 PM 69.8 °F - 64.4 °F 83% 29.69 in 10.0 mi South 6.9 mph - N/A   Overcast
7:55 PM 69.8 °F - 64.4 °F 83% 29.69 in 10.0 mi South 8.1 mph - N/A Thunderstorm Overcast
8:15 PM 69.8 °F - 64.4 °F 83% 29.69 in 10.0 mi SSW 5.8 mph - 0.01 in Thunderstorm Mostly Cloudy
8:35 PM 66.2 °F - 64.4 °F 94% 29.74 in 4.0 mi WSW 17.3 mph 23.0 mph 0.23 in Thunderstorm Thunderstorm
8:55 PM 62.6 °F - 59.0 °F 88% 29.73 in 9.0 mi West 8.1 mph - 0.38 in Thunderstorm Thunderstorm
9:15 PM 60.8 °F - 57.2 °F 88% 29.75 in 7.0 mi West 6.9 mph - 0.14 in Thunderstorm Thunderstorm
9:35 PM 60.8 °F - 57.2 °F 88% 29.74 in 3.0 mi WSW 6.9 mph - 0.48 in Thunderstorm Thunderstorm
9:55 PM 60.8 °F - 57.2 °F 88% 29.75 in 10.0 mi ESE 8.1 mph - 0.56 in Thunderstorm Thunderstorm
10:15 PM 60.8 °F - 57.2 °F 88% 29.73 in 10.0 mi ESE 6.9 mph - 0.08 in Thunderstorm Overcast
10:35 PM 60.8 °F - 57.2 °F 88% 29.72 in 10.0 mi SE 11.5 mph - 0.09 in   Overcast
10:55 PM 60.8 °F - 57.2 °F 88% 29.72 in 10.0 mi SSE 9.2 mph - 0.10 in   Overcast
11:15 PM 60.8 °F - 59.0 °F 94% 29.68 in 10.0 mi South 8.1 mph - 0.01 in   Mostly Cloudy
11:35 PM 60.8 °F - 57.2 °F 88% 29.67 in 10.0 mi South 8.1 mph - 0.01 in   Partly Cloudy
11:55 PM 60.8 °F - 59.0 °F 94% 29.69 in 10.0 mi South 5.8 mph - 0.01 in   Mostly Cloudy